W7TIC-13 Weather Reports


Display with metric or nautical units.
time (UTC)temp
F
wind
direction
speed
MPH
gust
MPH
rain 1hr
in
rain 24hr
in
rain mn
in
humidity
%
barometer
mb
20260505035021 47 255 2.0 4.0 0.00 0.00 0.00 51 1011.7
20260505034039 48 234 6.0 7.0 0.00 0.00 0.00 50 1011.5
20260505033018 49 230 6.0 7.0 0.00 0.00 0.00 49 1011.4
20260505032017 50 219 5.0 7.0 0.00 0.00 0.00 46 1011.3
20260505031015 51 244 9.0 10.0 0.00 0.00 0.00 44 1011.1
20260505030032 51 240 9.0 11.0 0.00 0.00 0.00 44 1011.0
20260505025020 52 237 11.0 15.0 0.00 0.00 0.00 43 1010.7
20260505024024 52 239 9.0 10.0 0.00 0.00 0.00 43 1010.4
20260505023029 53 267 5.0 6.0 0.00 0.00 0.00 41 1010.3
20260505022015 54 282 6.0 8.0 0.00 0.00 0.00 41 1010.2
20260505021040 55 265 9.0 11.0 0.00 0.00 0.00 40 1010.1
20260505020045 56 261 8.0 9.0 0.00 0.00 0.00 38 1010.0
20260505015031 57 271 9.0 11.0 0.00 0.00 0.00 36 1010.0
20260505014018 60 279 13.0 18.0 0.00 0.00 0.00 31 1009.9
20260505013022 61 299 12.0 13.0 0.00 0.00 0.00 30 1009.8
20260505012026 61 289 7.0 9.0 0.00 0.00 0.00 30 1009.8
20260505011031 60 290 8.0 11.0 0.00 0.00 0.00 32 1009.8
20260505010018 61 304 9.0 12.0 0.00 0.00 0.00 30 1009.9
20260505005024 61 290 9.0 13.0 0.00 0.00 0.00 28 1009.9
20260505004027 65 280 8.0 11.0 0.00 0.00 0.00 23 1009.9
20260505003032 64 260 8.0 13.0 0.00 0.00 0.00 23 1010.0
20260505002019 66 270 10.0 13.0 0.00 0.00 0.00 22 1010.1
20260505001024 65 263 11.0 13.0 0.00 0.00 0.00 23 1010.1
20260505000028 67 265 12.0 15.0 0.00 0.00 0.00 22 1010.0
20260504235036 68 262 13.0 18.0 0.00 0.00 0.00 21 1010.0
20260504234020 68 248 15.0 17.0 0.00 0.00 0.00 21 1010.0
20260504233025 69 252 11.0 19.0 0.00 0.00 0.00 20 1009.9
20260504232030 69 267 10.0 12.0 0.00 0.00 0.00 19 1009.9
20260504231016 68 270 13.0 17.0 0.00 0.00 0.00 21 1009.9
20260504230021 65 269 10.0 15.0 0.00 0.00 0.00 22 1010.1
20260504225027 69 250 14.0 17.0 0.00 0.00 0.00 20 1010.1
20260504224051 70 253 11.0 15.0 0.00 0.00 0.00 21 1010.1
20260504223039 67 220 8.0 10.0 0.00 0.00 0.00 23 1010.4
20260504222022 67 258 12.0 17.0 0.00 0.00 0.00 22 1010.5
20260504221027 66 263 11.0 13.0 0.00 0.00 0.00 24 1010.7
20260504220032 66 260 13.0 16.0 0.00 0.00 0.00 22 1010.7
20260504215019 67 265 13.0 18.0 0.00 0.00 0.00 22 1010.7
20260504214023 70 246 13.0 19.0 0.00 0.00 0.00 19 1011.0
20260504213028 71 286 9.0 13.0 0.00 0.00 0.00 19 1011.1
20260504212036 73 254 9.0 14.0 0.00 0.00 0.00 19 1011.2
20260504211020 73 288 4.0 7.0 0.00 0.00 0.00 19 1011.3
20260504210046 71 297 8.0 12.0 0.00 0.00 0.00 20 1011.3
20260504205030 69 245 9.0 12.0 0.00 0.00 0.00 20 1011.3
20260504204016 70 280 13.0 16.0 0.00 0.00 0.00 21 1011.5
20260504203022 69 264 14.0 20.0 0.00 0.00 0.00 21 1011.5
20260504202025 70 246 11.0 16.0 0.00 0.00 0.00 20 1011.6
20260504201045 69 251 11.0 13.0 0.00 0.00 0.00 20 1011.7
20260504200057 69 242 8.0 13.0 0.00 0.00 0.00 20 1011.9
20260504195042 71 230 4.0 8.0 0.00 0.00 0.00 19 1012.0
20260504194022 70 249 6.0 12.0 0.00 0.00 0.00 19 1012.1
20260504193020 69 232 3.0 7.0 0.00 0.00 0.00 19 1012.2
20260504192019 70 286 10.0 14.0 0.00 0.00 0.00 19 1012.4
20260504191017 70 256 10.0 16.0 0.00 0.00 0.00 20 1012.5
20260504190017 68 209 5.0 9.0 0.00 0.00 0.00 20 1012.7
20260504185015 68 239 5.0 9.0 0.00 0.00 0.00 20 1012.9
20260504184019 67 220 7.0 10.0 0.00 0.00 0.00 21 1013.0
20260504183024 67 219 7.0 11.0 0.00 0.00 0.00 21 1013.1
20260504182029 68 253 11.0 15.0 0.00 0.00 0.00 21 1013.2
20260504181017 67 166 6.0 9.0 0.00 0.00 0.00 23 1013.2
20260504180115 67 253 8.0 11.0 0.00 0.00 0.00 22 1013.3
20260504175046 66 241 9.0 15.0 0.00 0.00 0.00 23 1013.5
20260504174030 67 260 9.0 13.0 0.00 0.00 0.00 23 1013.6
20260504173017 65 230 9.0 13.0 0.00 0.00 0.00 23 1013.6
20260504172022 65 248 8.0 11.0 0.00 0.00 0.00 24 1013.6
20260504171027 65 253 9.0 12.0 0.00 0.00 0.00 25 1013.6
20260504151051 61 0.0 0.0 0.00 0.00 0.00 34 1014.2
20260504141024 44 313 2.0 4.0 0.00 0.00 0.00 53 1015.0
20260504081016 34 85 3.0 3.0 0.00 0.00 0.00 75 1015.2
20260504050017 43 0.0 0.0 0.00 0.00 0.00 51 1015.8
20260504045022 43 0.0 0.0 0.00 0.00 0.00 52 1016.0
20260504044026 43 128 3.0 5.0 0.00 0.00 0.00 51 1016.0
20260504043030 43 0.0 0.0 0.00 0.00 0.00 50 1016.0
20260504042017 44 113 1.0 4.0 0.00 0.00 0.00 49 1016.0
20260504041022 44 114 2.0 4.0 0.00 0.00 0.00 48 1016.0
20260504040027 46 0.0 0.0 0.00 0.00 0.00 45 1016.0